EW8360 Weather Reports


time (UTC)temp
F
wind
direction
speed
knots
gust
knots
rain 1hr
in
rain 24hr
in
rain mn
in
humidity
%
barometer
mb
20260510063126 60 251 0.0 0.9 0.00 0.00 0.00 85 1012.1
20260510062625 61 253 0.0 1.7 0.00 0.00 0.00 85 1012.1
20260510062127 61 252 0.0 2.6 0.00 0.00 0.00 85 1012.1
20260510061847 61 229 0.9 2.6 0.00 0.00 0.00 85 1012.1
20260510061346 61 230 1.7 1.7 0.00 0.00 0.00 85 1012.1
20260510060625 61 211 0.9 1.7 0.00 0.00 0.00 85 1012.0
20260510060125 60 239 0.0 0.0 0.00 0.00 0.00 85 1012.0
20260510055626 60 251 0.0 0.0 0.00 0.00 0.00 85 1012.1
20260510055124 60 255 0.0 0.0 0.00 0.00 0.00 85 1012.0
20260510054624 60 267 0.0 0.9 0.00 0.00 0.00 85 1012.1
20260510054125 60 252 0.0 0.9 0.00 0.00 0.00 85 1012.0
20260510053625 60 261 0.0 1.7 0.00 0.00 0.00 85 1012.0
20260510053125 60 257 0.0 1.7 0.00 0.00 0.00 85 1012.0
20260510052621 60 250 0.0 2.6 0.00 0.00 0.00 86 1012.0
20260510052125 60 259 0.9 2.6 0.00 0.00 0.00 85 1012.0
20260510051625 60 241 0.9 2.6 0.00 0.00 0.00 86 1012.0
20260510051124 60 232 0.9 4.3 0.00 0.00 0.00 86 1012.0
20260510050623 60 273 2.6 4.3 0.00 0.00 0.00 86 1012.1
20260510050123 60 261 0.0 4.3 0.00 0.00 0.00 86 1012.1
20260510045842 60 239 0.9 2.6 0.00 0.00 0.00 85 1012.1
20260510045123 60 255 1.7 2.6 0.00 0.00 0.00 85 1012.0
20260510044847 60 250 0.0 2.6 0.00 0.00 0.00 85 1012.1
20260510044124 60 260 0.0 2.6 0.00 0.00 0.00 85 1012.1
20260510043624 60 250 0.0 4.3 0.00 0.00 0.00 85 1012.0
20260510043123 60 256 1.7 4.3 0.00 0.00 0.00 85 1012.1
20260510042623 60 258 0.0 4.3 0.00 0.00 0.00 85 1012.0
20260510042123 60 253 0.9 4.3 0.00 0.00 0.00 85 1012.0
20260510041624 60 253 1.7 2.6 0.00 0.00 0.00 85 1011.9
20260510041123 60 256 0.0 2.6 0.00 0.00 0.00 85 1011.9
20260510040843 60 261 0.0 2.6 0.00 0.00 0.00 85 1011.8
20260510040343 60 247 1.7 5.2 0.00 0.00 0.00 86 1011.8
20260510035623 60 261 0.9 5.2 0.00 0.00 0.00 86 1011.7
20260510035123 60 266 0.9 2.6 0.00 0.00 0.00 85 1011.7
20260510034622 60 250 1.7 5.2 0.00 0.00 0.00 86 1011.6
20260510034123 60 263 0.0 5.2 0.00 0.00 0.00 86 1011.5
20260510033623 60 252 2.6 5.2 0.00 0.00 0.00 86 1011.5
20260510033345 60 257 0.0 2.6 0.00 0.00 0.00 85 1011.4
20260510032841 60 258 1.7 2.6 0.00 0.00 0.00 85 1011.4
20260510032122 60 245 0.9 2.6 0.00 0.00 0.00 85 1011.3
20260510031623 60 227 0.9 2.6 0.00 0.00 0.00 84 1011.2
20260510030621 61 222 1.7 2.6 0.00 0.00 0.00 85 1011.0
20260510030122 61 269 2.6 2.6 0.00 0.00 0.00 84 1011.1
20260510025622 61 244 0.9 2.6 0.00 0.00 0.00 84 1011.0
20260510025122 62 286 0.0 2.6 0.00 0.00 0.00 84 1011.0
20260510024620 62 261 0.9 4.3 0.00 0.00 0.00 83 1011.0
20260510024340 62 251 0.9 4.3 0.00 0.00 0.00 83 1010.9
20260510023621 63 241 0.9 2.6 0.00 0.00 0.00 82 1010.9
20260510023121 63 245 0.9 1.7 0.00 0.00 0.00 81 1010.7
20260510022620 63 80 0.0 2.6 0.00 0.00 0.00 81 1010.7
20260510022119 63 251 0.9 5.2 0.00 0.00 0.00 81 1010.7
20260510021619 64 248 0.9 5.2 0.00 0.00 0.00 80 1010.8
20260510021344 64 243 0.9 6.1 0.00 0.00 0.00 79 1010.8
20260510020619 64 238 0.9 6.1 0.00 0.00 0.00 79 1010.7
20260510020119 64 262 1.7 6.1 0.00 0.00 0.00 80 1010.6
20260510015619 64 242 2.6 5.2 0.00 0.00 0.00 79 1010.8
20260510014620 63 265 1.7 6.1 0.00 0.00 0.00 78 1010.7
20260510014118 63 260 0.9 6.1 0.00 0.00 0.00 79 1010.7
20260510013836 64 266 2.6 6.1 0.00 0.00 0.00 80 1010.8
20260510013120 64 83 1.7 6.1 0.00 0.00 0.00 80 1010.8
20260510012618 64 259 3.5 5.2 0.00 0.00 0.00 80 1010.8
20260510012338 65 267 3.5 6.1 0.00 0.00 0.00 80 1010.9
20260510011619 65 326 3.5 7.0 0.00 0.00 0.00 79 1010.9
20260510011119 66 256 2.6 7.0 0.00 0.00 0.00 79 1010.9
20260510010620 66 307 1.7 6.1 0.00 0.00 0.00 76 1010.9
20260510010119 67 255 1.7 6.1 0.00 0.00 0.00 75 1010.9
20260510005618 67 236 0.9 7.8 0.00 0.00 0.00 74 1010.9
20260510005119 67 243 0.0 10.4 0.00 0.00 0.00 73 1010.8
20260510004619 67 269 2.6 10.4 0.00 0.00 0.00 73 1010.7
20260510004117 67 261 2.6 8.7 0.00 0.00 0.00 72 1010.7
20260510003838 67 188 1.7 8.7 0.00 0.00 0.00 74 1010.5
20260510003344 68 222 2.6 11.3 0.00 0.00 0.00 72 1010.7
20260510002618 68 220 5.2 11.3 0.00 0.00 0.00 74 1010.7
20260510002341 68 249 3.5 8.7 0.00 0.00 0.00 71 1010.7
20260510001617 68 181 3.5 10.4 0.00 0.00 0.00 72 1010.8
20260510001119 69 215 4.3 10.4 0.00 0.00 0.00 72 1010.7
20260510000619 69 255 3.5 7.8 0.00 0.00 0.00 69 1010.7
20260510000341 69 280 2.6 7.8 0.00 0.00 0.00 69 1010.6
20260509235616 69 206 3.5 8.7 0.00 0.00 0.00 72 1010.5
20260509235118 69 217 4.3 8.7 0.00 0.00 0.00 70 1010.6
20260509234617 69 214 6.1 7.8 0.00 0.00 0.00 67 1010.5
20260509234118 69 252 1.7 8.7 0.00 0.00 0.00 66 1010.5
20260509233616 68 212 1.7 8.7 0.00 0.00 0.00 69 1010.4
20260509233118 68 199 3.5 7.0 0.00 0.00 0.00 70 1010.5
20260509232618 68 275 0.9 7.8 0.00 0.00 0.00 70 1010.5
20260509232336 68 304 3.5 7.8 0.00 0.00 0.00 71 1010.6
20260509231617 68 270 2.6 7.0 0.00 0.00 0.00 71 1010.6
20260509231115 69 353 3.5 7.0 0.00 0.00 0.00 71 1010.7
20260509230616 69 289 4.3 7.0 0.00 0.00 0.00 70 1010.6
20260509230117 69 252 2.6 7.0 0.00 0.00 0.00 71 1010.6
20260509225616 69 258 2.6 7.8 0.00 0.00 0.00 70 1010.7
20260509225115 69 246 1.7 10.4 0.00 0.00 0.00 71 1010.7
20260509224842 68 305 7.0 10.4 0.00 0.00 0.00 72 1010.8
20260509223615 68 274 1.7 12.2 0.00 0.00 0.00 69 1010.9
20260509223115 68 354 2.6 12.2 0.00 0.00 0.00 73 1010.9
20260509222617 68 287 3.5 12.2 0.00 0.00 0.00 72 1011.1
20260509222336 68 255 0.9 12.2 0.00 0.00 0.00 72 1011.1
20260509221615 68 319 7.0 8.7 0.00 0.00 0.00 71 1011.1
20260509221336 68 282 4.3 8.7 0.00 0.00 0.00 73 1011.2
20260509220616 68 260 5.2 12.2 0.00 0.00 0.00 70 1011.2
20260509220116 68 275 4.3 12.2 0.00 0.00 0.00 70 1011.2
20260509215840 68 351 4.3 8.7 0.00 0.00 0.00 71 1011.2
20260509215335 68 330 1.7 8.7 0.00 0.00 0.00 71 1011.2
20260509214615 68 348 3.5 8.7 0.00 0.00 0.00 71 1011.3
20260509214116 68 274 3.5 8.7 0.00 0.00 0.00 71 1011.3
20260509213115 68 320 6.1 11.3 0.00 0.00 0.00 71 1011.4
20260509212616 68 301 3.5 11.3 0.00 0.00 0.00 70 1011.5
20260509211613 68 313 4.3 8.7 0.00 0.00 0.00 71 1011.6
20260509211333 68 316 5.2 13.9 0.00 0.00 0.00 72 1011.5
20260509210614 68 311 6.1 13.9 0.00 0.00 0.00 74 1011.6
20260509210114 68 355 7.8 13.0 0.00 0.00 0.00 71 1011.7
20260509205613 68 312 5.2 8.7 0.00 0.00 0.00 70 1011.7
20260509205114 68 5 7.0 11.3 0.00 0.00 0.00 72 1011.6
20260509204839 68 340 2.6 11.3 0.00 0.00 0.00 74 1011.7
20260509204114 67 266 3.5 13.9 0.00 0.00 0.00 72 1011.8
20260509203113 67 356 7.8 10.4 0.00 0.00 0.00 73 1011.7
20260509202833 68 303 4.3 10.4 0.00 0.00 0.00 72 1011.7
20260509202332 68 349 6.1 13.0 0.00 0.00 0.00 74 1011.7
20260509201613 68 346 7.8 13.0 0.00 0.00 0.00 73 1011.7
20260509201112 68 357 4.3 13.0 0.00 0.00 0.00 72 1011.6
20260509200611 69 318 5.2 11.3 0.00 0.00 0.00 70 1011.7
20260509200113 69 259 5.2 11.3 0.00 0.00 0.00 70 1011.7
20260509195612 69 307 8.7 11.3 0.00 0.00 0.00 71 1011.7
20260509195112 69 350 3.5 8.7 0.00 0.00 0.00 70 1011.6
20260509194612 69 342 4.3 8.7 0.00 0.00 0.00 69 1011.7
20260509194335 69 254 3.5 11.3 0.00 0.00 0.00 71 1011.7
20260509193833 69 284 2.6 11.3 0.00 0.00 0.00 70 1011.8
20260509193112 69 338 7.8 10.4 0.00 0.00 0.00 70 1011.8
20260509192610 69 287 4.3 8.7 0.00 0.00 0.00 71 1011.9
20260509192330 69 348 7.0 11.3 0.00 0.00 0.00 71 1011.9
20260509191612 69 326 5.2 11.3 0.00 0.00 0.00 69 1012.0
20260509191111 69 338 5.2 10.4 0.00 0.00 0.00 71 1011.9
20260509190611 68 295 4.3 7.8 0.00 0.00 0.00 69 1011.9
20260509190111 68 301 1.7 7.8 0.00 0.00 0.00 70 1011.8
20260509185611 68 291 4.3 7.8 0.00 0.00 0.00 71 1011.9
20260509185110 68 342 3.5 8.7 0.00 0.00 0.00 71 1011.9
20260509184613 69 320 7.8 8.7 0.00 0.00 0.00 71 1011.9
20260509184111 69 307 6.1 12.2 0.00 0.00 0.00 73 1012.0
20260509183611 69 336 7.8 12.2 0.00 0.00 0.00 73 1012.0
20260509183110 69 335 5.2 7.8 0.00 0.00 0.00 72 1012.0
20260509182838 69 249 2.6 7.8 0.00 0.00 0.00 71 1012.0
20260509181611 69 320 3.5 7.0 0.00 0.00 0.00 71 1012.2
20260509181109 69 340 3.5 7.0 0.00 0.00 0.00 71 1012.1
20260509180111 69 357 4.3 7.0 0.00 0.00 0.00 73 1012.1
20260509175611 69 326 5.2 7.0 0.00 0.00 0.00 71 1012.2
20260509175109 68 316 3.5 7.0 0.00 0.00 0.00 72 1012.2
20260509174608 68 253 1.7 7.0 0.00 0.00 0.00 74 1012.1
20260509174112 68 66 2.6 6.1 0.00 0.00 0.00 73 1012.2
20260509173609 68 264 4.3 6.1 0.00 0.00 0.00 73 1012.1
20260509173108 68 296 3.5 7.0 0.00 0.00 0.00 72 1012.1
20260509172608 67 341 3.5 7.0 0.00 0.00 0.00 74 1012.1
20260509172111 67 21 4.3 6.1 0.00 0.00 0.00 74 1012.1
20260509171610 67 231 0.9 7.0 0.00 0.00 0.00 74 1012.1
20260509171109 67 287 1.7 7.0 0.00 0.00 0.00 75 1012.1
20260509170609 67 325 3.5 6.1 0.00 0.00 0.00 76 1012.2
20260509170108 67 323 3.5 6.1 0.00 0.00 0.00 76 1012.1
20260509165610 66 278 2.6 6.1 0.00 0.00 0.00 76 1012.2
20260509165108 66 326 3.5 5.2 0.00 0.00 0.00 77 1012.1
20260509164828 65 259 0.9 2.6 0.00 0.00 0.00 76 1012.1
20260509164107 65 298 0.9 4.3 0.00 0.00 0.00 74 1012.2
20260509163608 64 235 1.7 4.3 0.00 0.00 0.00 76 1012.2
20260509163110 64 270 1.7 6.1 0.00 0.00 0.00 79 1012.3
20260509162608 63 289 3.5 6.1 0.00 0.00 0.00 81 1012.4
20260509162324 63 266 1.7 4.3 0.00 0.00 0.00 82 1012.4
20260509161608 63 356 1.7 6.1 0.00 0.00 0.00 81 1012.4
20260509161108 63 266 3.5 6.1 0.00 0.00 0.00 83 1012.3
20260509160608 63 336 4.3 6.1 0.00 0.00 0.00 84 1012.3
20260509160106 62 270 0.9 6.1 0.00 0.00 0.00 83 1012.3
20260509155608 62 311 3.5 6.1 0.00 0.00 0.00 84 1012.2
20260509155109 62 294 2.6 2.6 0.00 0.00 0.00 83 1012.3
20260509154606 62 239 0.9 2.6 0.00 0.00 0.00 84 1012.3
20260509154106 62 264 0.9 4.3 0.00 0.00 0.00 85 1012.3
20260509153607 62 282 0.9 5.2 0.00 0.00 0.00 85 1012.4
20260509153108 62 256 0.9 5.2 0.00 0.00 0.00 86 1012.3
20260509152606 61 281 3.5 5.2 0.00 0.00 0.00 86 1012.4
20260509151607 61 258 0.0 2.6 0.00 0.00 0.00 87 1012.3
20260509151106 61 288 0.9 2.6 0.00 0.00 0.00 87 1012.2
20260509150830 61 265 0.0 2.6 0.00 0.00 0.00 87 1012.3
20260509150104 61 260 0.0 2.6 0.00 0.00 0.00 87 1012.3
20260509145606 61 267 1.7 2.6 0.00 0.00 0.00 88 1012.2
20260509145106 61 261 0.0 4.3 0.00 0.00 0.00 88 1012.3
20260509144604 61 268 0.9 4.3 0.00 0.00 0.00 88 1012.3
20260509144104 61 309 2.6 4.3 0.00 0.00 0.00 88 1012.3
20260509143605 61 276 1.7 2.6 0.00 0.00 0.00 88 1012.2
20260509143106 60 279 0.9 2.6 0.00 0.00 0.00 88 1012.3
20260509142605 60 278 0.0 0.0 0.00 0.00 0.00 88 1012.3
20260509142104 60 264 0.0 0.0 0.00 0.00 0.00 88 1012.2
20260509141606 60 269 0.0 1.7 0.00 0.00 0.00 89 1012.3
20260509141105 60 272 0.0 2.6 0.00 0.00 0.00 89 1012.3
20260509140600 60 275 0.9 2.6 0.00 0.00 0.00 89 1012.2
20260509140323 60 264 0.0 1.7 0.00 0.00 0.00 89 1012.2
20260509135603 60 268 0.0 1.7 0.00 0.00 0.00 88 1012.2
20260509135104 60 262 0.0 2.6 0.00 0.00 0.00 89 1012.1
20260509134604 60 280 1.7 4.3 0.00 0.00 0.00 89 1012.1
20260509134102 60 269 0.9 4.3 0.00 0.00 0.00 89 1012.1
20260509133603 60 261 2.6 4.3 0.00 0.00 0.00 89 1012.1
20260509133329 60 263 0.0 2.6 0.00 0.00 0.00 89 1011.9
20260509132604 60 272 0.9 2.6 0.00 0.00 0.00 89 1012.0
20260509132102 60 262 0.9 2.6 0.00 0.00 0.00 89 1011.9
20260509131604 60 326 2.6 2.6 0.00 0.00 0.00 88 1011.8
20260509131104 60 290 1.7 2.6 0.00 0.00 0.00 89 1011.8
20260509130604 60 291 1.7 1.7 0.00 0.00 0.00 89 1011.9
20260509125602 60 265 0.0 1.7 0.00 0.00 0.00 90 1011.9
20260509125103 60 283 1.7 1.7 0.00 0.00 0.00 90 1011.9
20260509124603 60 263 0.9 1.7 0.00 0.00 0.00 90 1011.9
20260509124102 60 252 0.9 2.6 0.00 0.00 0.00 90 1011.9
20260509123601 60 259 2.6 5.2 0.00 0.00 0.00 89 1011.9
20260509123102 60 257 0.0 5.2 0.00 0.00 0.00 89 1011.9
20260509122604 60 306 3.5 4.3 0.00 0.00 0.00 89 1011.9
20260509122101 60 301 0.0 5.2 0.00 0.00 0.00 89 1011.8
20260509121824 60 273 1.7 5.2 0.00 0.00 0.00 89 1011.8
20260509121102 60 268 1.7 1.7 0.00 0.00 0.00 89 1011.8
20260509120601 60 252 0.0 1.7 0.00 0.00 0.00 89 1011.8
20260509120101 60 252 0.0 1.7 0.00 0.00 0.00 89 1011.9
20260509115601 60 263 0.0 0.0 0.00 0.00 0.00 89 1011.7
20260509115102 60 261 0.0 0.0 0.00 0.00 0.00 90 1011.7
20260509114603 60 262 0.0 2.6 0.00 0.00 0.00 90 1011.8
20260509114100 60 276 0.0 2.6 0.00 0.00 0.00 90 1011.7
20260509113817 60 273 1.7 2.6 0.00 0.00 0.00 90 1011.7
20260509113321 60 279 2.6 2.6 0.00 0.00 0.00 90 1011.7
20260509112601 60 272 0.9 2.6 0.00 0.00 0.00 90 1011.8
20260509112101 60 268 1.7 4.3 0.00 0.00 0.00 90 1011.8
20260509111100 60 263 1.7 1.7 0.00 0.00 0.00 90 1011.9
20260509110603 60 266 0.9 1.7 0.00 0.00 0.00 90 1011.9
20260509110100 60 259 0.9 1.7 0.00 0.00 0.00 90 1012.0
20260509105059 60 243 0.9 2.6 0.00 0.00 0.00 90 1012.0
20260509104559 60 266 0.9 2.6 0.00 0.00 0.00 90 1011.9
20260509104101 60 244 0.0 0.9 0.00 0.00 0.00 90 1011.9
20260509103821 60 245 0.0 2.6 0.00 0.00 0.00 90 1011.8
20260509103059 60 252 0.9 2.6 0.00 0.00 0.00 90 1011.8
20260509102559 60 262 0.0 1.7 0.00 0.00 0.00 90 1011.9
20260509102059 60 252 0.0 4.3 0.00 0.00 0.00 90 1011.9
20260509101558 60 248 0.9 4.3 0.00 0.00 0.00 90 1012.0
20260509101059 60 264 1.7 2.6 0.00 0.00 0.00 90 1012.0
20260509100107 60 324 1.7 2.6 0.00 0.00 0.00 90 1011.9
20260509095608 60 279 0.0 4.3 0.00 0.00 0.00 90 1012.0
20260509095108 60 314 1.7 4.3 0.00 0.00 0.00 90 1011.9
20260509094608 60 261 1.7 1.7 0.00 0.00 0.00 90 1012.0
20260509094107 60 263 0.0 0.0 0.00 0.00 0.00 90 1012.0
20260509093609 61 253 0.0 0.0 0.00 0.00 0.00 90 1012.2
20260509093107 61 224 0.0 0.9 0.00 0.00 0.00 90 1012.2
20260509092606 61 252 0.0 2.6 0.00 0.00 0.00 90 1012.2
20260509092106 61 267 0.9 2.6 0.00 0.00 0.00 90 1012.3
20260509091826 61 257 0.9 1.7 0.00 0.00 0.00 90 1012.3
20260509091109 61 256 0.0 1.7 0.00 0.00 0.00 90 1012.3
20260509090605 61 260 0.9 2.6 0.00 0.00 0.00 90 1012.4
20260509090108 61 256 0.9 2.6 0.00 0.00 0.00 90 1012.4
20260509085607 61 262 0.0 2.6 0.00 0.00 0.00 90 1012.5
20260509085108 61 264 0.0 0.0 0.00 0.00 0.00 90 1012.4
20260509084607 61 266 0.0 1.7 0.00 0.00 0.00 90 1012.6
20260509083607 61 251 0.0 0.9 0.00 0.00 0.00 90 1012.7
20260509083106 61 267 0.0 4.3 0.00 0.00 0.00 90 1012.6
20260509082606 61 245 0.0 4.3 0.00 0.00 0.00 90 1012.6
20260509082105 61 206 2.6 4.3 0.00 0.00 0.00 90 1012.5
20260509081106 61 252 0.0 4.3 0.00 0.00 0.00 90 1012.6
20260509080605 61 256 1.7 4.3 0.00 0.00 0.00 90 1012.7
20260509080105 61 301 0.9 2.6 0.00 0.00 0.00 90 1012.7
20260509075604 61 263 0.0 2.6 0.00 0.00 0.00 90 1012.7
20260509075106 61 269 0.9 0.9 0.00 0.00 0.00 90 1012.7
20260509074832 61 271 0.0 0.9 0.00 0.00 0.00 89 1012.8
20260509074104 61 257 0.0 2.6 0.00 0.00 0.00 89 1012.9
20260509073604 61 252 0.0 4.3 0.00 0.00 0.00 90 1012.9
20260509073330 61 209 2.6 4.3 0.00 0.00 0.00 90 1012.9
20260509072605 61 249 0.0 0.9 0.00 0.00 0.00 89 1012.8
20260509072104 61 248 0.0 2.6 0.00 0.00 0.00 89 1012.9
20260509071828 61 254 0.9 2.6 0.00 0.00 0.00 89 1013.0
20260509071104 61 225 1.7 4.3 0.00 0.00 0.00 89 1013.0
20260509070605 61 238 0.9 4.3 0.00 0.00 0.00 89 1013.0
20260509070105 61 247 0.0 2.6 0.00 0.00 0.00 89 1013.1
20260509065603 61 270 0.0 4.3 0.00 0.00 0.00 89 1013.1
20260509065105 61 276 0.9 4.3 0.00 0.00 0.00 89 1013.2
20260509064604 61 268 0.9 4.3 0.00 0.00 0.00 89 1013.3
20260509064103 61 265 0.9 4.3 0.00 0.00 0.00 89 1013.2
20260509063603 61 254 1.7 4.3 0.00 0.00 0.00 89 1013.2